| time (UTC) | temp F | wind direction | speed knots | gust knots | rain 1hr in | rain 24hr in | rain mn in | humidity % | barometer mb |
| 20260505064801 | 63 | 2 | 0.0 | 0.9 | 0.00 | 0.00 | 0.00 | 81 | 1013.3 |
| 20260505064121 | 0 | 20 | 0.0 | 0.9 | 0.00 | 0.00 | 0.00 | ||
| 20260505062725 | 0 | 358 | 0.0 | 0.9 | 0.00 | 0.00 | 0.00 | ||
| 20260505061800 | 0 | 53 | 0.9 | 0.0 | 0.00 | 0.00 | 0.00 | ||
| 20260505060652 | 66 | 354 | 0.0 | 0.9 | 0.00 | 0.00 | 0.00 | 72 | 1014.1 |
| 20260505060008 | 66 | 1 | 0.0 | 0.9 | 0.00 | 0.00 | 0.00 | 72 | 1014.2 |
| 20260505055328 | 0 | 0 | 0.0 | 0.0 | 0.00 | 0.00 | 0.00 | ||
| 20260505054432 | 65 | 0 | 0.0 | 0.9 | 0.00 | 0.00 | 0.00 | 73 | 1014.3 |
| 20260505053752 | 0 | 0 | 0.0 | 0.0 | 0.00 | 0.00 | 0.00 | ||
| 20260505051908 | 0 | 0 | 0.0 | 0.0 | 0.00 | 0.00 | 0.00 | ||
| 20260505050333 | 0 | 278 | 0.9 | 0.0 | 0.00 | 0.00 | 0.00 | ||
| 20260505040701 | 0 | 264 | 0.9 | 0.9 | 0.00 | 0.00 | 0.00 | ||
| 20260505035807 | 0 | 258 | 3.5 | 1.7 | 0.00 | 0.00 | 0.00 | ||
| 20260505034413 | 0 | 261 | 1.7 | 1.7 | 0.00 | 0.00 | 0.00 | ||
| 20260505033301 | 67 | 265 | 1.7 | 7.8 | 0.00 | 0.00 | 0.00 | 69 | 1014.5 |
| 20260505032621 | 67 | 265 | 4.3 | 8.7 | 0.00 | 0.00 | 0.00 | 70 | 1014.5 |
| 20260505031941 | 67 | 260 | 4.3 | 8.7 | 0.00 | 0.00 | 0.00 | 70 | 1014.4 |
| 20260505031301 | 0 | 260 | 5.2 | 2.6 | 0.00 | 0.00 | 0.00 | ||
| 20260505030336 | 0 | 265 | 3.5 | 0.0 | 0.00 | 0.00 | 0.00 | ||
| 20260505025442 | 0 | 259 | 4.3 | 3.5 | 0.00 | 0.00 | 0.00 | ||
| 20260505024548 | 0 | 259 | 5.2 | 5.2 | 0.00 | 0.00 | 0.00 | ||
| 20260505023654 | 0 | 260 | 2.6 | 0.9 | 0.00 | 0.00 | 0.00 | ||
| 20260505021902 | 68 | 259 | 4.3 | 7.8 | 0.00 | 0.00 | 0.00 | 65 | 1014.1 |
| 20260505021222 | 0 | 259 | 5.2 | 3.5 | 0.00 | 0.00 | 0.00 | ||
| 20260505020113 | 0 | 264 | 2.6 | 3.5 | 0.00 | 0.00 | 0.00 | ||
| 20260505015217 | 70 | 259 | 2.6 | 8.7 | 0.00 | 0.00 | 0.00 | 62 | 1013.9 |
| 20260505014537 | 70 | 263 | 2.6 | 7.0 | 0.00 | 0.00 | 0.00 | 61 | 1014.0 |
| 20260505013857 | 0 | 260 | 2.6 | 0.0 | 0.00 | 0.00 | 0.00 | ||
| 20260505013004 | 70 | 266 | 3.5 | 8.7 | 0.00 | 0.00 | 0.00 | 60 | 1013.7 |
| 20260505012321 | 0 | 261 | 4.3 | 0.9 | 0.00 | 0.00 | 0.00 | ||
| 20260505010957 | 71 | 265 | 2.6 | 7.8 | 0.00 | 0.00 | 0.00 | 58 | 1013.7 |
| 20260505010317 | 0 | 265 | 3.5 | 1.7 | 0.00 | 0.00 | 0.00 | ||
| 20260505005211 | 0 | 258 | 3.5 | 4.3 | 0.00 | 0.00 | 0.00 | ||
| 20260505003639 | 72 | 259 | 4.3 | 7.8 | 0.00 | 0.00 | 0.00 | 54 | 1013.7 |
| 20260505002959 | 0 | 259 | 5.2 | 4.3 | 0.00 | 0.00 | 0.00 | ||
| 20260505002105 | 0 | 259 | 4.3 | 7.0 | 0.00 | 0.00 | 0.00 | ||
| 20260505001210 | 0 | 260 | 4.3 | 5.2 | 0.00 | 0.00 | 0.00 | ||
| 20260505000100 | 74 | 259 | 6.1 | 10.4 | 0.00 | 0.00 | 0.00 | 51 | 1014.1 |
| 20260504235420 | 74 | 259 | 7.0 | 10.4 | 0.00 | 0.00 | 0.00 | 50 | 1014.2 |
| 20260504234740 | 0 | 259 | 7.0 | 7.8 | 0.00 | 0.00 | 0.00 | ||
| 20260504233744 | 0 | 259 | 6.1 | 5.2 | 0.00 | 0.00 | 0.00 | ||
| 20260504232820 | 75 | 259 | 6.1 | 10.4 | 0.00 | 0.00 | 0.00 | 49 | 1014.1 |
| 20260504232140 | 75 | 259 | 7.0 | 10.4 | 0.00 | 0.00 | 0.00 | 46 | 1014.2 |
| 20260504231500 | 0 | 260 | 8.7 | 7.8 | 0.00 | 0.00 | 0.00 | ||
| 20260504225209 | 0 | 260 | 8.7 | 8.7 | 0.00 | 0.00 | 0.00 | ||
| 20260504223814 | 0 | 259 | 6.1 | 5.2 | 0.00 | 0.00 | 0.00 | ||
| 20260504222850 | 0 | 259 | 5.2 | 7.0 | 0.00 | 0.00 | 0.00 | ||
| 20260504221957 | 77 | 259 | 7.8 | 15.6 | 0.00 | 0.00 | 0.00 | 40 | 1014.6 |
| 20260504221317 | 78 | 259 | 4.3 | 10.4 | 0.00 | 0.00 | 0.00 | 38 | 1014.6 |
| 20260504220637 | 0 | 259 | 6.1 | 3.5 | 0.00 | 0.00 | 0.00 | ||
| 20260504215313 | 78 | 259 | 5.2 | 13.0 | 0.00 | 0.00 | 0.00 | 40 | 1014.8 |
| 20260504214633 | 77 | 259 | 7.8 | 14.8 | 0.00 | 0.00 | 0.00 | 39 | 1014.9 |
| 20260504213953 | 78 | 259 | 9.6 | 14.8 | 0.00 | 0.00 | 0.00 | 40 | 1014.8 |
| 20260504213313 | 78 | 259 | 7.0 | 14.8 | 0.00 | 0.00 | 0.00 | 40 | 1014.8 |
| 20260504212633 | 78 | 258 | 6.1 | 11.3 | 0.00 | 0.00 | 0.00 | 38 | 1014.9 |
| 20260504211953 | 79 | 259 | 8.7 | 13.9 | 0.00 | 0.00 | 0.00 | 41 | 1014.9 |
| 20260504211313 | 0 | 258 | 4.3 | 9.6 | 0.00 | 0.00 | 0.00 | ||
| 20260504205704 | 78 | 258 | 8.7 | 13.0 | 0.00 | 0.00 | 0.00 | 41 | 1015.2 |
| 20260504205024 | 78 | 260 | 8.7 | 15.6 | 0.00 | 0.00 | 0.00 | 42 | 1015.3 |
| 20260504204344 | 0 | 258 | 7.0 | 7.8 | 0.00 | 0.00 | 0.00 | ||
| 20260504203450 | 0 | 259 | 7.0 | 7.0 | 0.00 | 0.00 | 0.00 | ||
| 20260504201744 | 0 | 259 | 9.6 | 5.2 | 0.00 | 0.00 | 0.00 | ||
| 20260504200636 | 0 | 259 | 6.1 | 3.5 | 0.00 | 0.00 | 0.00 | ||
| 20260504195741 | 79 | 260 | 7.0 | 11.3 | 0.00 | 0.00 | 0.00 | 40 | 1016.1 |
| 20260504195101 | 0 | 259 | 7.8 | 7.8 | 0.00 | 0.00 | 0.00 | ||
| 20260504194208 | 0 | 259 | 7.0 | 4.3 | 0.00 | 0.00 | 0.00 | ||
| 20260504193244 | 78 | 259 | 9.6 | 15.6 | 0.00 | 0.00 | 0.00 | 42 | 1016.4 |
| 20260504192604 | 78 | 260 | 6.1 | 13.9 | 0.00 | 0.00 | 0.00 | 42 | 1016.6 |
| 20260504191924 | 0 | 259 | 6.1 | 5.2 | 0.00 | 0.00 | 0.00 | ||
| 20260504191031 | 78 | 259 | 8.7 | 13.0 | 0.00 | 0.00 | 0.00 | 42 | 1016.7 |
| 20260504190351 | 78 | 259 | 5.2 | 9.6 | 0.00 | 0.00 | 0.00 | 42 | 1016.9 |
| 20260504185711 | 0 | 259 | 7.8 | 6.1 | 0.00 | 0.00 | 0.00 | ||
| 20260504183843 | 79 | 259 | 5.2 | 10.4 | 0.00 | 0.00 | 0.00 | 39 | 1016.9 |
| 20260504183203 | 78 | 259 | 7.0 | 15.6 | 0.00 | 0.00 | 0.00 | 42 | 1017.0 |
| 20260504182523 | 77 | 261 | 5.2 | 19.1 | 0.00 | 0.00 | 0.00 | 41 | 1017.2 |
| 20260504181843 | 77 | 260 | 10.4 | 17.4 | 0.00 | 0.00 | 0.00 | 43 | 1017.3 |
| 20260504181203 | 0 | 259 | 9.6 | 0.9 | 0.00 | 0.00 | 0.00 | ||
| 20260504180023 | 0 | 260 | 7.8 | 6.1 | 0.00 | 0.00 | 0.00 | ||
| 20260504174700 | 0 | 257 | 2.6 | 7.0 | 0.00 | 0.00 | 0.00 | ||
| 20260504173705 | 0 | 260 | 8.7 | 7.8 | 0.00 | 0.00 | 0.00 | ||
| 20260504172553 | 77 | 285 | 0.9 | 7.0 | 0.00 | 0.00 | 0.00 | 42 | 1017.7 |
| 20260504171913 | 0 | 262 | 6.1 | 3.5 | 0.00 | 0.00 | 0.00 | ||
| 20260504171019 | 0 | 267 | 5.2 | 8.7 | 0.00 | 0.00 | 0.00 | ||
| 20260504170125 | 0 | 259 | 9.6 | 8.7 | 0.00 | 0.00 | 0.00 | ||
| 20260504160123 | 75 | 258 | 5.2 | 14.8 | 0.00 | 0.00 | 0.00 | 43 | 1018.4 |
| 20260504151013 | 0 | 261 | 2.6 | 0.9 | 0.00 | 0.00 | 0.00 | ||
| 20260504140643 | 0 | 257 | 2.6 | 2.6 | 0.00 | 0.00 | 0.00 | ||
| 20260504130352 | 0 | 298 | 0.9 | 1.7 | 0.00 | 0.00 | 0.00 | ||
| 20260504110132 | 0 | 84 | 2.6 | 1.7 | 0.00 | 0.00 | 0.00 | ||
| 20260504100453 | 59 | 257 | 1.7 | 4.3 | 0.00 | 0.00 | 0.00 | 78 | 1017.8 |
| 20260504081921 | 61 | 260 | 4.3 | 6.1 | 0.00 | 0.00 | 0.00 | 70 | 1018.2 |
| 20260504081241 | 0 | 259 | 3.5 | 3.5 | 0.00 | 0.00 | 0.00 | ||
| 20260504080346 | 60 | 259 | 2.6 | 4.3 | 0.00 | 0.00 | 0.00 | 70 | 1018.2 |